Weather History for KCHO - June, 2013

Change the Weather History Date:

Tuesday, June 25, 2013

  Actual Average Record
Temperature  
Mean Temperature 80 °F 74 °F  
Max Temperature 91 °F 86 °F 97 °F (1914)
Min Temperature 68 °F 63 °F 50 °F (1979)
Degree Days  
Heating Degree Days 0 0  
Month to date heating degree days 2 8  
Since 1 June heating degree days 2 8  
Since 1 July heating degree days 4207 4441  
Cooling Degree Days 15 9  
Month to date cooling degree days 186 170  
Year to date cooling degree days 333 256  
Since 1 June cooling degree days 186 170  
Growing Degree Days 29 (Base 50)    
Moisture  
Dew Point 68 °F    
Average Humidity 69    
Maximum Humidity 93    
Minimum Humidity 44    
Precipitation  
Precipitation 0.00 in 0.11 in 1.04 in (2006)
Month to date precipitation 6.81 3.18  
Year to date precipitation 23.44 19.65  
Sea Level Pressure  
Sea Level Pressure 30.00 in    
Wind  
Wind Speed 5 mph (SSW)    
Max Wind Speed 12 mph    
Max Gust Speed 22 mph    
Visibility 10 miles    
Events      
T = Trace of Precipitation, MM = Missing Value Source: NWS Daily Summary

Daily Weather History Graph

Daily Weather History Graph

Search for Another Location

Airport or City:

Trip Planner

Search our weather history database for the weather conditions in past years. The results will help you decide how hot, cold, wet, or windy it might be!

Date:

Astronomy

Jun. 25, 2013 Rise Set
Actual Time 5:52 AM EDT 8:40 PM EDT
Civil Twilight 5:20 AM EDT 9:12 PM EDT
Nautical Twilight 4:41 AM EDT 9:51 PM EDT
Astronomical Twilight 3:55 AM EDT 10:36 PM EDT
Moon 10:28 PM EDT (6/25) 8:27 AM EDT (6/25)
Length of Visible Light 15h 51m
Length of Day
14h 48m
Waning Gibbous, 93% of the Moon is Illuminated
Jun 25
Waning Gibbous
Jun 30
Last Quarter
Jul 8
New
Jul 15
First Quarter
Jul 22
Full

Hourly Weather History & Observations

Time (EDT) Temp. Heat Index Dew Point Humidity Pressure Visibility Wind Dir Wind Speed Gust Speed Precip Events Conditions
12:53 AM 73.0 °F - 69.1 °F 87% 30.06 in 10.0 mi SSW 3.5 mph - N/A   Clear
1:53 AM 72.0 °F - 69.1 °F 91% 30.04 in 10.0 mi SW 3.5 mph - N/A   Clear
2:53 AM 71.1 °F - 68.0 °F 90% 30.03 in 10.0 mi Calm Calm - N/A   Clear
3:53 AM 71.1 °F - 68.0 °F 90% 30.03 in 10.0 mi Calm Calm - N/A   Clear
4:53 AM 70.0 °F - 66.9 °F 90% 30.02 in 10.0 mi Variable 3.5 mph - N/A   Partly Cloudy
5:53 AM 68.0 °F - 66.0 °F 93% 30.02 in 10.0 mi Calm Calm - N/A   Clear
6:53 AM 71.1 °F - 66.0 °F 84% 30.04 in 10.0 mi Variable 3.5 mph - N/A   Clear
7:53 AM 73.9 °F - 66.9 °F 79% 30.04 in 10.0 mi Variable 3.5 mph - N/A   Clear
8:53 AM 77.0 °F - 68.0 °F 74% 30.05 in 10.0 mi SW 3.5 mph - N/A   Clear
9:53 AM 81.0 °F 84.1 °F 69.1 °F 67% 30.05 in 10.0 mi SSW 5.8 mph - N/A   Clear
10:53 AM 84.0 °F 87.8 °F 69.1 °F 61% 30.05 in 10.0 mi Calm Calm - N/A   Clear
11:53 AM 86.0 °F 90.7 °F 70.0 °F 59% 30.04 in 10.0 mi Variable 4.6 mph - N/A   Clear
12:53 PM 88.0 °F 91.4 °F 68.0 °F 51% 30.03 in 10.0 mi Variable 4.6 mph - N/A   Partly Cloudy
1:53 PM 88.0 °F 92.1 °F 69.1 °F 53% 30.01 in 10.0 mi SSW 6.9 mph - N/A   Partly Cloudy
2:53 PM 89.1 °F 92.9 °F 68.0 °F 50% 29.99 in 10.0 mi SSW 8.1 mph - N/A   Clear
3:53 PM 90.0 °F 91.7 °F 64.9 °F 43% 29.97 in 10.0 mi South 4.6 mph - N/A   Clear
4:53 PM 89.1 °F 92.9 °F 68.0 °F 50% 29.96 in 10.0 mi WSW 11.5 mph - N/A   Scattered Clouds
5:53 PM 89.1 °F 92.1 °F 66.9 °F 48% 29.94 in 10.0 mi WSW 11.5 mph - N/A   Scattered Clouds
6:53 PM 86.0 °F 90.7 °F 70.0 °F 59% 29.92 in 10.0 mi SSW 8.1 mph - N/A   Clear
7:53 PM 84.0 °F 88.4 °F 70.0 °F 63% 29.93 in 10.0 mi SSW 6.9 mph - N/A   Clear
8:53 PM 80.1 °F 83.2 °F 70.0 °F 71% 29.95 in 10.0 mi SSE 3.5 mph - N/A   Clear
9:53 PM 78.1 °F - 71.1 °F 79% 29.97 in 10.0 mi SSW 4.6 mph - N/A   Clear
10:53 PM 75.9 °F - 70.0 °F 82% 29.96 in 10.0 mi SSW 5.8 mph - N/A   Clear
11:53 PM 75.0 °F - 70.0 °F 84% 29.93 in 10.0 mi SSW 4.6 mph - N/A   Clear